TimeHST,TemperatureF,Dew PointF,Humidity,Sea Level PressureIn,VisibilityMPH,Wind Direction,Wind SpeedMPH,Gust SpeedMPH,PrecipitationIn,Events,Conditions,WindDirDegrees,DateUTC
12:53 AM,75.9,62.1,62,30.07,10.0,Calm,Calm,-,N/A,,Partly Cloudy,0,2013-02-22 10:53:00
1:53 AM,73.9,60.1,62,30.04,10.0,East,6.9,-,N/A,,Overcast,100,2013-02-22 11:53:00
2:53 AM,75.0,59.0,57,30.02,10.0,ENE,5.8,-,N/A,,Partly Cloudy,70,2013-02-22 12:53:00
3:53 AM,73.0,59.0,61,30.02,10.0,East,3.5,-,N/A,,Clear,80,2013-02-22 13:53:00
4:53 AM,73.9,59.0,59,30.00,10.0,SSE,8.1,-,N/A,,Clear,150,2013-02-22 14:53:00
5:53 AM,73.9,57.9,57,30.01,10.0,ESE,8.1,-,N/A,,Clear,110,2013-02-22 15:53:00
6:53 AM,73.9,60.1,62,30.01,10.0,ESE,8.1,-,N/A,,Clear,120,2013-02-22 16:53:00
7:53 AM,75.0,59.0,57,30.04,10.0,ESE,6.9,-,N/A,,Clear,110,2013-02-22 17:53:00
8:53 AM,75.9,62.1,62,30.06,10.0,SSE,8.1,-,N/A,,Clear,150,2013-02-22 18:53:00
9:53 AM,77.0,66.0,69,30.07,10.0,South,11.5,-,N/A,,Clear,180,2013-02-22 19:53:00
10:53 AM,78.1,66.0,66,30.07,10.0,SW,6.9,-,N/A,,Clear,220,2013-02-22 20:53:00
11:53 AM,78.1,64.9,64,30.05,10.0,SW,9.2,-,N/A,,Partly Cloudy,220,2013-02-22 21:53:00
12:53 PM,78.1,64.9,64,30.02,10.0,SSW,10.4,-,0.00,Rain,Light Rain,210,2013-02-22 22:53:00
1:53 PM,80.1,64.9,60,30.00,10.0,SSW,10.4,-,0.00,,Scattered Clouds,200,2013-02-22 23:53:00
2:53 PM,79.0,64.9,62,29.99,10.0,SSW,11.5,-,0.00,Rain,Light Rain,200,2013-02-23 00:53:00
3:53 PM,78.1,64.9,64,29.98,10.0,South,6.9,-,0.00,,Mostly Cloudy,180,2013-02-23 01:53:00
4:53 PM,78.1,61.0,56,29.98,10.0,South,8.1,-,N/A,,Overcast,170,2013-02-23 02:53:00
5:53 PM,77.0,63.0,62,30.00,10.0,SSE,12.7,-,N/A,,Clear,160,2013-02-23 03:53:00
6:53 PM,75.0,66.0,73,30.02,10.0,SSE,6.9,-,N/A,,Mostly Cloudy,160,2013-02-23 04:53:00
7:53 PM,75.0,66.0,73,30.05,10.0,East,3.5,-,N/A,,Clear,100,2013-02-23 05:53:00
8:53 PM,73.9,64.0,71,30.06,10.0,ENE,5.8,-,N/A,,Clear,70,2013-02-23 06:53:00
9:53 PM,73.9,64.0,71,30.08,10.0,NE,4.6,-,N/A,,Clear,40,2013-02-23 07:53:00
10:53 PM,71.1,57.0,61,30.06,10.0,ENE,4.6,-,N/A,,Clear,60,2013-02-23 08:53:00
11:53 PM,71.1,59.0,66,30.05,10.0,East,12.7,-,N/A,,Clear,90,2013-02-23 09:53:00